Time,TemperatureF,DewpointF,PressureIn,WindDirection,WindDirectionDegrees,WindSpeedMPH,WindSpeedGustMPH,Humidity,HourlyPrecipIn,Conditions,Clouds,dailyrainin,SoftwareType,DateUTC
2013-08-12 00:02:00,83.0,78.0,30.06,NNW,331,8.0,13.0,84,0.00,,,0.00,,2013-08-12 04:02:00,
2013-08-12 00:12:00,83.0,78.0,30.06,NNW,327,7.0,13.0,84,0.00,,,0.00,,2013-08-12 04:12:00,
2013-08-12 00:22:00,83.0,77.0,30.06,NNW,335,8.0,13.0,83,0.00,,,0.00,,2013-08-12 04:22:00,
2013-08-12 00:33:00,83.0,77.0,30.06,NNW,331,9.0,14.0,83,0.00,,,0.00,,2013-08-12 04:33:00,
2013-08-12 00:43:00,83.0,77.0,30.06,NNW,332,8.0,11.0,83,0.00,,,0.00,,2013-08-12 04:43:00,
2013-08-12 00:52:00,83.0,78.0,30.05,NNW,336,7.0,16.0,84,0.00,,,0.00,,2013-08-12 04:52:00,
2013-08-12 01:02:00,83.0,78.0,30.05,WNW,303,8.0,12.0,84,0.00,,,0.00,,2013-08-12 05:02:00,
2013-08-12 01:11:00,83.0,77.0,30.05,NNW,331,7.0,13.0,83,0.00,,,0.00,,2013-08-12 05:11:00,
2013-08-12 01:22:00,83.0,77.0,30.05,NW,321,9.0,14.0,83,0.00,,,0.00,,2013-08-12 05:22:00,
2013-08-12 01:32:00,83.0,77.0,30.05,NNW,338,9.0,14.0,83,0.00,,,0.00,,2013-08-12 05:32:00,
2013-08-12 01:43:00,83.0,77.0,30.05,North,2,9.0,15.0,83,0.00,,,0.00,,2013-08-12 05:43:00,
2013-08-12 01:52:00,83.0,77.0,30.05,NNW,333,4.0,19.0,83,0.00,,,0.00,,2013-08-12 05:52:00,
2013-08-12 02:02:00,83.0,77.0,30.05,NNW,331,7.0,15.0,82,0.00,,,0.00,,2013-08-12 06:02:00,
2013-08-12 02:11:00,83.0,77.0,30.05,NNW,329,6.0,13.0,82,0.00,,,0.00,,2013-08-12 06:11:00,
2013-08-12 02:22:00,83.0,77.0,30.04,NNW,328,6.0,10.0,82,0.00,,,0.00,,2013-08-12 06:22:00,
2013-08-12 02:32:00,83.0,77.0,30.04,NNW,333,6.0,12.0,82,0.00,,,0.00,,2013-08-12 06:32:00,
2013-08-12 02:42:00,83.0,77.0,30.04,NW,321,5.0,11.0,83,0.00,,,0.00,,2013-08-12 06:42:00,
2013-08-12 02:52:00,83.0,77.0,30.04,NW,312,6.0,11.0,83,0.00,,,0.00,,2013-08-12 06:52:00,
2013-08-12 03:01:00,83.0,77.0,30.03,NNW,341,4.0,13.0,83,0.00,,,0.00,,2013-08-12 07:01:00,
2013-08-12 03:12:00,83.0,77.0,30.03,North,2,5.0,10.0,83,0.00,,,0.00,,2013-08-12 07:12:00,
2013-08-12 03:22:00,83.0,77.0,30.03,NW,325,5.0,10.0,82,0.00,,,0.00,,2013-08-12 07:22:00,
2013-08-12 03:33:00,83.0,77.0,30.03,NNW,335,8.0,14.0,82,0.00,,,0.00,,2013-08-12 07:33:00,
2013-08-12 03:43:00,83.0,77.0,30.03,NNW,330,3.0,11.0,82,0.00,,,0.00,,2013-08-12 07:43:00,
2013-08-12 03:52:00,83.0,77.0,30.02,NNW,331,5.0,10.0,82,0.00,,,0.00,,2013-08-12 07:52:00,
2013-08-12 04:02:00,83.0,77.0,30.01,NNW,327,4.0,10.0,82,0.00,,,0.00,,2013-08-12 08:02:00,
2013-08-12 04:11:00,83.0,77.0,30.01,NNW,340,5.0,10.0,82,0.00,,,0.00,,2013-08-12 08:11:00,
2013-08-12 04:22:00,83.0,77.0,30.02,WNW,293,3.0,11.0,83,0.00,,,0.00,,2013-08-12 08:22:00,
2013-08-12 04:33:00,83.0,77.0,30.01,NNW,339,6.0,10.0,82,0.00,,,0.00,,2013-08-12 08:33:00,
2013-08-12 04:43:00,83.0,77.0,30.01,NW,313,7.0,12.0,82,0.00,,,0.00,,2013-08-12 08:43:00,
2013-08-12 04:53:00,83.0,77.0,30.01,WNW,292,4.0,12.0,82,0.00,,,0.00,,2013-08-12 08:53:00,
2013-08-12 05:02:00,83.0,77.0,30.01,North,2,8.0,13.0,81,0.00,,,0.00,,2013-08-12 09:02:00,
2013-08-12 05:11:00,83.0,77.0,30.01,NNW,329,5.0,11.0,82,0.00,,,0.00,,2013-08-12 09:11:00,
2013-08-12 05:22:00,83.0,77.0,30.01,NW,311,7.0,11.0,82,0.00,,,0.00,,2013-08-12 09:22:00,
2013-08-12 05:32:00,82.0,76.0,30.01,NW,320,5.0,10.0,81,0.00,,,0.00,,2013-08-12 09:32:00,
2013-08-12 05:43:00,82.0,76.0,30.02,WNW,296,1.0,8.0,81,0.00,,,0.00,,2013-08-12 09:43:00,
2013-08-12 05:53:00,83.0,77.0,30.02,NW,317,1.0,7.0,81,0.00,,,0.00,,2013-08-12 09:53:00,
2013-08-12 06:02:00,82.0,75.0,30.02,West,281,4.0,9.0,80,0.00,,,0.00,,2013-08-12 10:02:00,
2013-08-12 06:12:00,82.0,76.0,30.02,WNW,288,1.0,7.0,81,0.00,,,0.00,,2013-08-12 10:12:00,
2013-08-12 06:22:00,82.0,76.0,30.02,NNW,331,2.0,7.0,81,0.00,,,0.00,,2013-08-12 10:22:00,
2013-08-12 06:32:00,82.0,75.0,30.02,NNW,329,4.0,9.0,80,0.00,,,0.00,,2013-08-12 10:32:00,
2013-08-12 06:43:00,82.0,76.0,30.02,NNW,331,2.0,7.0,81,0.00,,,0.00,,2013-08-12 10:43:00,
2013-08-12 06:52:00,82.0,76.0,30.02,NNW,340,2.0,8.0,81,0.00,,,0.00,,2013-08-12 10:52:00,
2013-08-12 07:02:00,82.0,76.0,30.02,North,2,1.0,9.0,82,0.00,,,0.00,,2013-08-12 11:02:00,
2013-08-12 07:22:00,82.0,76.0,30.02,WNW,285,0.0,6.0,82,0.00,,,0.00,,2013-08-12 11:22:00,
2013-08-12 07:32:00,82.0,76.0,30.02,West,265,6.0,11.0,83,0.00,,,0.00,,2013-08-12 11:32:00,
2013-08-12 07:42:00,82.0,76.0,30.02,West,277,2.0,8.0,83,0.00,,,0.00,,2013-08-12 11:42:00,
2013-08-12 07:52:00,82.0,76.0,30.02,West,279,2.0,8.0,83,0.00,,,0.00,,2013-08-12 11:52:00,
2013-08-12 08:02:00,82.0,76.0,30.02,NW,320,3.0,9.0,83,0.00,,,0.00,,2013-08-12 12:02:00,
2013-08-12 08:11:00,82.0,76.0,30.02,West,274,4.0,12.0,82,0.00,,,0.00,,2013-08-12 12:11:00,
2013-08-12 08:22:00,83.0,77.0,30.03,West,271,4.0,8.0,83,0.00,,,0.00,,2013-08-12 12:22:00,
2013-08-12 08:32:00,83.0,77.0,30.03,NW,316,3.0,7.0,83,0.00,,,0.00,,2013-08-12 12:32:00,
2013-08-12 08:43:00,83.0,77.0,30.03,NW,323,1.0,5.0,82,0.00,,,0.00,,2013-08-12 12:43:00,
2013-08-12 08:52:00,83.0,77.0,30.03,NNW,333,2.0,6.0,81,0.00,,,0.00,,2013-08-12 12:52:00,
2013-08-12 09:02:00,83.0,76.0,30.03,West,281,4.0,10.0,80,0.00,,,0.00,,2013-08-12 13:02:00,
2013-08-12 09:11:00,84.0,78.0,30.03,West,279,4.0,8.0,83,0.00,,,0.00,,2013-08-12 13:11:00,
2013-08-12 09:22:00,84.0,78.0,30.03,West,268,5.0,10.0,81,0.00,,,0.00,,2013-08-12 13:22:00,
2013-08-12 09:33:00,84.0,78.0,30.04,NW,323,2.0,8.0,81,0.00,,,0.00,,2013-08-12 13:33:00,
2013-08-12 09:43:00,84.0,79.0,30.04,NNW,329,1.0,11.0,84,0.00,,,0.00,,2013-08-12 13:43:00,
2013-08-12 09:53:00,84.0,79.0,30.04,NNW,343,1.0,5.0,84,0.00,,,0.00,,2013-08-12 13:53:00,
2013-08-12 10:02:00,84.0,78.0,30.04,WNW,289,2.0,6.0,83,0.00,,,0.00,,2013-08-12 14:02:00,
2013-08-12 10:11:00,84.0,78.0,30.04,NNW,330,3.0,8.0,83,0.00,,,0.00,,2013-08-12 14:11:00,
2013-08-12 10:22:00,85.0,78.0,30.04,NNW,335,3.0,9.0,81,0.00,,,0.00,,2013-08-12 14:22:00,
2013-08-12 10:32:00,85.0,78.0,30.03,NNW,338,4.0,9.0,80,0.00,,,0.00,,2013-08-12 14:32:00,
2013-08-12 10:42:00,86.0,78.0,30.04,NNW,333,5.0,10.0,78,0.00,,,0.00,,2013-08-12 14:42:00,
2013-08-12 10:52:00,86.0,78.0,30.04,NW,311,4.0,8.0,78,0.00,,,0.00,,2013-08-12 14:52:00,
2013-08-12 11:11:00,87.0,79.0,30.04,NNW,335,5.0,10.0,78,0.00,,,0.00,,2013-08-12 15:11:00,
2013-08-12 11:22:00,88.0,80.0,30.04,West,271,3.0,10.0,77,0.00,,,0.00,,2013-08-12 15:22:00,
2013-08-12 11:33:00,88.0,79.0,30.04,West,273,3.0,9.0,74,0.00,,,0.00,,2013-08-12 15:33:00,
2013-08-12 11:43:00,88.0,79.0,30.04,NNW,342,2.0,8.0,75,0.00,,,0.00,,2013-08-12 15:43:00,
2013-08-12 11:52:00,88.0,80.0,30.04,West,280,4.0,10.0,77,0.00,,,0.00,,2013-08-12 15:52:00,
2013-08-12 12:11:00,89.0,80.0,30.04,NNW,331,6.0,11.0,75,0.00,,,0.00,,2013-08-12 16:11:00,
2013-08-12 12:22:00,89.0,80.0,30.03,NNW,336,5.0,10.0,75,0.00,,,0.00,,2013-08-12 16:22:00,
2013-08-12 12:33:00,89.0,80.0,30.03,NW,325,7.0,11.0,75,0.00,,,0.00,,2013-08-12 16:33:00,
2013-08-12 12:43:00,89.0,79.0,30.03,NNW,335,7.0,11.0,73,0.00,,,0.00,,2013-08-12 16:43:00,
2013-08-12 12:53:00,89.0,80.0,30.03,NNW,335,5.0,11.0,74,0.00,,,0.00,,2013-08-12 16:53:00,
2013-08-12 13:02:00,89.0,80.0,30.03,NNW,335,5.0,11.0,74,0.00,,,0.00,,2013-08-12 17:02:00,
2013-08-12 13:11:00,89.0,80.0,30.03,NNW,335,5.0,11.0,74,0.00,,,0.00,,2013-08-12 17:11:00,
2013-08-12 14:11:00,90.0,80.0,30.02,NNW,338,6.0,14.0,73,0.00,,,0.00,,2013-08-12 18:11:00,
2013-08-12 14:24:00,90.0,81.0,30.02,NNW,342,4.0,11.0,75,0.00,,,0.00,,2013-08-12 18:24:00,
2013-08-12 14:32:00,89.0,80.0,30.02,WNW,301,7.0,14.0,74,0.00,,,0.00,,2013-08-12 18:32:00,
2013-08-12 15:43:00,89.0,80.0,30.00,NNW,344,4.0,11.0,75,0.00,,,0.00,,2013-08-12 19:43:00,
2013-08-12 15:52:00,89.0,80.0,29.99,NNW,338,6.0,10.0,76,0.00,,,0.00,,2013-08-12 19:52:00,
2013-08-12 16:42:00,88.0,79.0,29.98,NNW,338,6.0,12.0,75,0.00,,,0.00,,2013-08-12 20:42:00,
2013-08-12 16:52:00,88.0,79.0,29.98,NNW,334,9.0,13.0,76,0.00,,,0.00,,2013-08-12 20:52:00,
2013-08-12 17:01:00,88.0,79.0,29.98,North,2,7.0,14.0,76,0.00,,,0.00,,2013-08-12 21:01:00,
2013-08-12 17:22:00,88.0,79.0,29.98,NNW,346,6.0,15.0,76,0.00,,,0.00,,2013-08-12 21:22:00,
2013-08-12 17:32:00,87.0,78.0,29.98,NNW,340,8.0,19.0,76,0.00,,,0.00,,2013-08-12 21:32:00,
2013-08-12 17:43:00,87.0,78.0,29.98,North,2,9.0,14.0,76,0.00,,,0.00,,2013-08-12 21:43:00,
2013-08-12 17:52:00,87.0,78.0,29.98,NNW,336,5.0,12.0,76,0.00,,,0.00,,2013-08-12 21:52:00,
2013-08-12 18:11:00,86.0,78.0,29.98,NNW,339,9.0,14.0,77,0.00,,,0.00,,2013-08-12 22:11:00,
2013-08-12 18:22:00,86.0,78.0,29.98,NNW,335,10.0,18.0,76,0.00,,,0.00,,2013-08-12 22:22:00,
2013-08-12 18:32:00,85.0,77.0,29.98,NNW,340,7.0,13.0,78,0.00,,,0.00,,2013-08-12 22:32:00,
2013-08-12 18:43:00,85.0,77.0,29.98,NNW,331,9.0,18.0,78,0.00,,,0.00,,2013-08-12 22:43:00,
2013-08-12 18:53:00,85.0,77.0,29.98,NNW,331,9.0,16.0,77,0.00,,,0.00,,2013-08-12 22:53:00,
2013-08-12 19:02:00,85.0,77.0,29.98,NNW,339,6.0,15.0,78,0.00,,,0.00,,2013-08-12 23:02:00,
2013-08-12 19:11:00,85.0,77.0,29.98,NNW,331,5.0,11.0,78,0.00,,,0.00,,2013-08-12 23:11:00,
2013-08-12 19:22:00,85.0,78.0,29.97,North,2,4.0,10.0,79,0.00,,,0.00,,2013-08-12 23:22:00,
2013-08-12 19:54:00,85.0,78.0,29.96,WNW,283,4.0,11.0,81,0.00,,,0.00,,2013-08-12 23:54:00,
2013-08-12 20:12:00,85.0,78.0,29.97,NW,309,6.0,10.0,81,0.00,,,0.00,,2013-08-13 00:12:00,
2013-08-12 20:24:00,84.0,78.0,29.97,NW,317,6.0,12.0,83,0.00,,,0.00,,2013-08-13 00:24:00,
2013-08-12 20:45:00,84.0,78.0,29.97,North,2,6.0,11.0,83,0.00,,,0.00,,2013-08-13 00:45:00,
2013-08-12 20:54:00,84.0,78.0,29.97,NNW,331,7.0,14.0,83,0.00,,,0.00,,2013-08-13 00:54:00,
2013-08-12 21:13:00,83.0,77.0,29.97,NNW,339,8.0,13.0,81,0.00,,,0.00,,2013-08-13 01:13:00,
2013-08-12 21:23:00,84.0,78.0,29.97,North,2,6.0,15.0,83,0.00,,,0.00,,2013-08-13 01:23:00,
2013-08-12 21:42:00,84.0,79.0,29.98,NNW,338,5.0,12.0,84,0.00,,,0.00,,2013-08-13 01:42:00,
2013-08-12 21:55:00,83.0,78.0,29.98,WNW,283,2.0,8.0,84,0.00,,,0.00,,2013-08-13 01:55:00,
2013-08-12 22:22:00,83.0,78.0,29.99,NNW,342,5.0,11.0,84,0.00,,,0.00,,2013-08-13 02:22:00,
2013-08-12 22:43:00,83.0,78.0,30.00,NW,325,6.0,13.0,84,0.00,,,0.00,,2013-08-13 02:43:00,
2013-08-12 22:52:00,83.0,78.0,30.00,NNW,334,3.0,16.0,84,0.00,,,0.00,,2013-08-13 02:52:00,
2013-08-12 23:22:00,83.0,78.0,30.01,NW,311,9.0,14.0,85,0.00,,,0.00,,2013-08-13 03:22:00,
2013-08-12 23:54:00,83.0,78.0,30.01,NNW,329,10.0,15.0,85,0.00,,,0.00,,2013-08-13 03:54:00,